Regional Weather Roundup
Issued by NWS Charleston, SC

Current Version | Previous Version | Graphics & Text | Print | Product List | Glossary On
Versions: 1 2 3 4 5 6 7 8 9 10 11 12 13 14 15 16 17 18 19 20 21 22 23 24 25 26 27 28 29 30 31 32 33 34 35 36 37 38 39 40 41 42 43 44 45 46 47 48 49 50
000 ASUS42 KCHS 242328 RWRCHS REGIONAL WEATHER ROUNDUP NATIONAL WEATHER SERVICE CHARLESTON SC 700 PM EDT WED AUG 24 2016 NOTE: "FAIR" INDICATES FEW OR NO CLOUDS BELOW 12,000 FEET WITH NO SIGNIFICANT WEATHER AND/OR OBSTRUCTIONS TO VISIBILITY. NOT ALL STATIONS ARE QUALITY CONTROLLED. USE DATA WITH CAUTION... ESPECIALLY DEWPOINT OBSERVATIONS. SCZ027-030-031-034>040-042>050-250000- ...SOUTHEAST SOUTH CAROLINA... CITY SKY/WX TMP DP RH WIND PRES REMARKS N CHARLESTON CLOUDY 84 63 49 SE9 30.17S WATERFRONT PRK N/A 84 68 58 E10 30.15S MOUNT PLEASANT FAIR 81 68 65 CALM 30.17S JOHNS ISLAND FAIR 82 68 61 NE5 30.17S PINOPOLIS N/A 86 66 51 VRB2 30.10F MONCKS CORNER FAIR 79 66 65 CALM 30.17S SUMMERVILLE FAIR 84 68 58 CALM 30.18S BEAUFORT MCAS MOSUNNY 84 67 56 E9 30.17S BEAUFORT ARPT FAIR 82 64 54 SE7 30.16S HILTON HEAD IS MOSUNNY 86 66 51 NE8 30.17F WALTERBORO MOCLDY 86 63 45 NE5 30.18R ALLENDALE FAIR 88 63 42 CALM 30.16S ...SOUTHERN MIDLANDS AND PEE DEE... CITY SKY/WX TMP DP RH WIND PRES REMARKS GEORGETOWN FAIR 79 64 61 E5 30.18S KINGSTREE FAIR 81 63 54 E3 30.17S ORANGEBURG MOSUNNY 86 62 44 E6 30.17F BARNWELL NOT AVBL AIKEN MOCLDY 84 68 58 W6 30.21S MANNING FAIR 81 66 61 CALM 30.17S COLUMBIA PTSUNNY 88 64 44 SE9 30.16F SUMTER MOSUNNY 86 61 42 E6 30.15F FLORENCE MOSUNNY 86 60 41 E5 30.18S MYRTLE BEACH PTCLDY 82 63 51 SE10 30.19S N MYRTLE BEACH CLEAR 83 62 49 N10 30.17F $$ GAZ063-065-086>088-099>101-113>116-118-119-134>141-150-250000- ...SOUTHEAST GEORGIA... CITY SKY/WX TMP DP RH WIND PRES REMARKS SAVANNAH ARPT PTSUNNY 85 63 47 E12 30.17R HUNTER AAF SUNNY 83 70 62 E12 30.14S FORT STEWART SUNNY 85 67 54 E7 30.14R STATESBORO MOSUNNY 87 67 51 CALM 30.16S HX 90 SYLVANIA PTCLDY N/A N/A N/A CALM 30.17S CLAXTON FAIR 86 70 58 E5 30.15S HX 90 ...CSRA...CENTRAL AND FAR SOUTHEAST GEORGIA... CITY SKY/WX TMP DP RH WIND PRES REMARKS THOMSON MOSUNNY 85 74 69 MISG 30.22F HX 93 AUGUSTA-BUSH MOSUNNY 86 68 54 N5 30.16S AUGUSTA-DANIEL MOSUNNY 86 67 52 N5 30.19S SWAINSBORO CLOUDY 88 63 42 E3 30.16F VIDALIA CLOUDY 88 70 55 NE5 30.15S HX 92 EASTMAN CLOUDY 91 48 22 E3 30.17S HAZLEHURST FAIR 90 65 43 CALM 30.13S HX 91 ALMA PTSUNNY 87 69 54 E9 30.14S HX 91 WAYCROSS N/A 88 72 58 E9G17 30.15R HX 94 JESUP FAIR 84 73 70 E7 30.16S HX 91 BAXLEY FAIR 86 73 66 SE6 30.15R HX 93 BRUNSWICK MOSUNNY 82 73 74 E13 30.16S SAINT SIMONS MOSUNNY 84 70 62 NE14 30.15S $$ SCZ027-028-034-036>038-045-046-048>050-GAZ119-141-250000- ...LAKE AND SUPPLEMENTAL COASTAL OBSERVATIONS... STATION/POSITION TIME TEMP WIND PRES WAVE SWELL AIR SEA DIR/SP/G HT/PER HT/PER/DIR (UTC) (F) (DEG/KT/KT) (MB) (FT/S) (FT/S/D) WINYAH BAY 2200 82 90/ 5 1021.0 LAKE MURRAY 2300 88 40/ 1/ 7 1021.0S ACE BASIN NERRS 2200 87 90/ 3 1022.0S FORT PULASKI 2300 83 87 1021.9S SAPELO ISLAND 2300 84 70/ 9 1021.0S $$ ANZ835-935-AMZ111-154-330-350-352-354-370-450-454-472-250000- ...C-MAN AND BUOY OBSERVATIONS... STATION/POSITION TIME TEMP WIND PRES WAVE SWELL AIR SEA DIR/SP/G HT/PER HT/PER/DIR (UTC) (F) (DEG/KT/KT) (MB) (FT/S) (FT/S/D) BUOY 41004 2250 82 84 50/ 16/ 19 1020.8F 5/ 6 2/ 70/ 8 BUOY 41008 2250 83 85 60/ 17/ 21 1020.7S 4/ 6 FOLLY BEACH CMAN 2300 82 80/ 12/ 14 1021.8F CAPERS NEARSHORE 2308 82 84 90/ 10/ 16 1021.4F FRIPP NEARSHORE 2308 83 87 100/ 14/ 17 1021.0R STATION/POSITION TIME TEMP WIND PRES WAVE SWELL AIR SEA DIR/SP/G HT/PER HT/PER/DIR (UTC) (F) (DEG/KT/KT) (MB) (FT/S) (FT/S/D) 5E ST. MARYS GA 2301 84 N/A 5/ 5 FRYING PAN BUOY 2300 81 85 30/ 14/ 17 1021.1F BUOY 41025 2250 81 85 80/ 8/ 12 1022.3S 3/ 7 3/ 30/ 7 CAPE LOOKOUT NC 2300 78 360/ 9/ 10 1021.7F BUOY 41002 2250 83 85 40/ 16/ 17 1019.2F 5/11 2/100/11 BUOY 41010 NOT AVBL ST AUGUSTINE FL 2300 82 85 40/ 17/ 18 1020.8R $$

USA.gov is the U.S. government's official web portal to all federal, state and local government web resources and services.